| time (UTC) | temp F | wind direction | speed knots | gust knots | rain 1hr in | rain 24hr in | rain mn in | humidity % | barometer mb |
| 20260503071507 | 61 | 292 | 6.1 | 11.3 | 0.00 | 0.00 | 0.00 | 62 | 1018.3 |
| 20260503054622 | 59 | 316 | 2.6 | 7.8 | 0.00 | 0.00 | 0.00 | 67 | 1018.3 |
| 20260503053059 | 58 | 331 | 0.9 | 8.7 | 0.00 | 0.00 | 0.00 | 69 | 1018.2 |
| 20260503051559 | 57 | 282 | 4.3 | 7.8 | 0.00 | 0.00 | 0.00 | 69 | 1018.2 |
| 20260503050058 | 56 | 264 | 3.5 | 6.1 | 0.00 | 0.00 | 0.00 | 71 | 1018.2 |
| 20260503044558 | 56 | 295 | 0.9 | 6.1 | 0.00 | 0.00 | 0.00 | 70 | 1018.2 |
| 20260503043057 | 56 | 283 | 4.3 | 9.6 | 0.00 | 0.00 | 0.00 | 70 | 1018.1 |
| 20260503041552 | 57 | 292 | 4.3 | 9.6 | 0.00 | 0.00 | 0.00 | 69 | 1018.1 |
| 20260503040050 | 57 | 336 | 3.5 | 7.0 | 0.00 | 0.00 | 0.00 | 66 | 1018.1 |
| 20260503034549 | 57 | 268 | 3.5 | 7.8 | 0.00 | 0.00 | 0.00 | 68 | 1018.1 |
| 20260503033051 | 57 | 286 | 2.6 | 7.8 | 0.00 | 0.00 | 0.00 | 68 | 1018.1 |
| 20260503031547 | 57 | 282 | 3.5 | 7.8 | 0.00 | 0.00 | 0.00 | 67 | 1018.1 |
| 20260503030047 | 57 | 276 | 2.6 | 8.7 | 0.00 | 0.00 | 0.00 | 66 | 1018.2 |
| 20260503024541 | 58 | 263 | 5.2 | 7.8 | 0.00 | 0.00 | 0.00 | 64 | 1018.3 |
| 20260503023039 | 58 | 295 | 5.2 | 7.8 | 0.00 | 0.00 | 0.00 | 64 | 1018.3 |
| 20260503021537 | 58 | 293 | 3.5 | 7.8 | 0.00 | 0.00 | 0.00 | 63 | 1018.4 |
| 20260503020036 | 58 | 281 | 3.5 | 7.0 | 0.00 | 0.00 | 0.00 | 63 | 1018.4 |
| 20260503014532 | 58 | 300 | 3.5 | 7.8 | 0.00 | 0.00 | 0.00 | 64 | 1018.6 |
| 20260503013031 | 58 | 273 | 4.3 | 7.0 | 0.00 | 0.00 | 0.00 | 62 | 1018.7 |
| 20260503011530 | 59 | 285 | 3.5 | 7.8 | 0.00 | 0.00 | 0.00 | 60 | 1018.7 |
| 20260503010034 | 59 | 284 | 3.5 | 7.0 | 0.00 | 0.00 | 0.00 | 61 | 1018.8 |
| 20260503004528 | 59 | 270 | 3.5 | 6.1 | 0.00 | 0.00 | 0.00 | 60 | 1018.9 |
| 20260503003026 | 59 | 268 | 2.6 | 7.0 | 0.00 | 0.00 | 0.00 | 59 | 1019.1 |
| 20260503001522 | 58 | 292 | 2.6 | 5.2 | 0.00 | 0.00 | 0.00 | 59 | 1019.2 |
| 20260503000020 | 59 | 302 | 1.7 | 6.1 | 0.00 | 0.00 | 0.00 | 58 | 1019.4 |
| 20260502234524 | 59 | 277 | 2.6 | 4.3 | 0.00 | 0.00 | 0.00 | 57 | 1019.6 |
| 20260502233017 | 59 | 297 | 2.6 | 5.2 | 0.00 | 0.00 | 0.00 | 57 | 1019.7 |
| 20260502231522 | 59 | 285 | 2.6 | 5.2 | 0.00 | 0.00 | 0.00 | 56 | 1019.7 |
| 20260502230016 | 59 | 315 | 0.9 | 3.5 | 0.00 | 0.00 | 0.00 | 56 | 1019.7 |
| 20260502224515 | 60 | 315 | 0.9 | 3.5 | 0.00 | 0.00 | 0.00 | 55 | 1019.7 |
| 20260502223015 | 60 | 262 | 2.6 | 5.2 | 0.00 | 0.00 | 0.00 | 53 | 1019.8 |
| 20260502221512 | 60 | 284 | 2.6 | 5.2 | 0.00 | 0.00 | 0.00 | 53 | 1019.8 |
| 20260502220012 | 58 | 270 | 0.9 | 3.5 | 0.00 | 0.00 | 0.00 | 58 | 1019.9 |
| 20260502214521 | 58 | 238 | 0.0 | 1.7 | 0.00 | 0.00 | 0.00 | 58 | 1019.9 |
| 20260502213008 | 58 | 236 | 0.0 | 0.9 | 0.00 | 0.00 | 0.00 | 57 | 1019.9 |
| 20260502211516 | 59 | 236 | 0.0 | 0.0 | 0.00 | 0.00 | 0.00 | 55 | 1019.8 |
| 20260502210021 | 59 | 236 | 0.0 | 2.6 | 0.00 | 0.00 | 0.00 | 53 | 1019.8 |
| 20260502204510 | 60 | 236 | 0.0 | 2.6 | 0.00 | 0.00 | 0.00 | 54 | 1019.8 |
| 20260502203010 | 60 | 236 | 0.0 | 1.7 | 0.00 | 0.00 | 0.00 | 54 | 1019.8 |
| 20260502201508 | 60 | 236 | 0.0 | 2.6 | 0.00 | 0.00 | 0.00 | 52 | 1019.8 |
| 20260502200004 | 61 | 241 | 0.0 | 2.6 | 0.00 | 0.00 | 0.00 | 52 | 1019.7 |
| 20260502194503 | 61 | 242 | 1.7 | 2.6 | 0.00 | 0.00 | 0.00 | 51 | 1019.8 |
| 20260502193003 | 61 | 247 | 1.7 | 3.5 | 0.00 | 0.00 | 0.00 | 51 | 1019.7 |
| 20260502191506 | 62 | 249 | 1.7 | 3.5 | 0.00 | 0.00 | 0.00 | 51 | 1019.6 |
| 20260502190003 | 62 | 230 | 1.7 | 2.6 | 0.00 | 0.00 | 0.00 | 52 | 1019.5 |
| 20260502184505 | 63 | 249 | 0.9 | 2.6 | 0.00 | 0.00 | 0.00 | 51 | 1019.4 |
| 20260502183001 | 64 | 269 | 0.0 | 4.3 | 0.00 | 0.00 | 0.00 | 47 | 1019.3 |
| 20260502181500 | 64 | 250 | 1.7 | 3.5 | 0.00 | 0.00 | 0.00 | 48 | 1019.2 |
| 20260502180116 | 65 | 256 | 1.7 | 2.6 | 0.00 | 0.00 | 0.00 | 46 | 1019.1 |
| 20260502170108 | 68 | 236 | 1.7 | 3.5 | 0.00 | 0.00 | 0.00 | 45 | 1019.0 |
| 20260502163054 | 69 | 233 | 2.6 | 4.3 | 0.00 | 0.00 | 0.00 | 44 | 1019.2 |
| 20260502161553 | 72 | 229 | 0.9 | 3.5 | 0.00 | 0.00 | 0.00 | 42 | 1019.3 |
| 20260502151551 | 73 | 69 | 0.9 | 5.2 | 0.00 | 0.00 | 0.00 | 34 | 1019.7 |
| 20260502123021 | 70 | 308 | 2.6 | 10.4 | 0.00 | 0.00 | 0.00 | 39 | 1022.0 |
| 20260502121535 | 70 | 80 | 1.7 | 6.1 | 0.00 | 0.00 | 0.00 | 40 | 1022.1 |
| 20260502114514 | 70 | 130 | 1.7 | 6.1 | 0.00 | 0.00 | 0.00 | 41 | 1022.6 |
| 20260502113012 | 69 | 59 | 1.7 | 6.1 | 0.00 | 0.00 | 0.00 | 41 | 1022.8 |
| 20260502111511 | 69 | 111 | 1.7 | 6.1 | 0.00 | 0.00 | 0.00 | 41 | 1023.2 |
| 20260502110109 | 68 | 117 | 0.0 | 4.3 | 0.00 | 0.00 | 0.00 | 43 | 1023.4 |
| 20260502104504 | 68 | 54 | 1.7 | 4.3 | 0.00 | 0.00 | 0.00 | 42 | 1023.6 |
| 20260502103002 | 68 | 50 | 1.7 | 6.1 | 0.00 | 0.00 | 0.00 | 44 | 1023.8 |
| 20260502101612 | 68 | 67 | 1.7 | 5.2 | 0.00 | 0.00 | 0.00 | 46 | 1024.0 |